Time,TemperatureF,DewpointF,PressureIn,WindDirection,WindDirectionDegrees,WindSpeedMPH,WindSpeedGustMPH,Humidity,HourlyPrecipIn,Conditions,Clouds,dailyrainin,SoftwareType,DateUTC
2013-04-24 00:02:00,45.0,42.0,-100.00,WNW,285,4.0,8.0,91,-99.99,,,-99.99,,2013-04-24 05:02:00,
2013-04-24 00:12:00,45.0,42.0,-100.00,WNW,290,6.0,14.0,91,-99.99,,,-99.99,,2013-04-24 05:12:00,
2013-04-24 00:22:00,45.0,42.0,-100.00,WNW,290,6.0,14.0,91,-99.99,,,-99.99,,2013-04-24 05:22:00,
2013-04-24 00:42:00,44.0,41.0,-100.00,North,350,6.0,10.0,90,-99.99,,,-99.99,,2013-04-24 05:42:00,
2013-04-24 00:52:00,44.0,41.0,-100.00,NW,315,9.0,11.0,90,-99.99,,,-99.99,,2013-04-24 05:52:00,
2013-04-24 01:02:00,44.0,41.0,-100.00,NW,315,9.0,11.0,90,-99.99,,,-99.99,,2013-04-24 06:02:00,
2013-04-24 01:12:00,44.0,41.0,-100.00,NW,305,8.0,14.0,90,-99.99,,,-99.99,,2013-04-24 06:12:00,
2013-04-24 01:21:00,44.0,41.0,-100.00,NW,320,6.0,12.0,89,-99.99,,,-99.99,,2013-04-24 06:21:00,
2013-04-24 01:32:00,44.0,41.0,-100.00,NW,320,6.0,12.0,89,-99.99,,,-99.99,,2013-04-24 06:32:00,
2013-04-24 01:42:00,44.0,40.0,-100.00,NNW,335,6.0,10.0,88,-99.99,,,-99.99,,2013-04-24 06:42:00,
2013-04-24 01:52:00,44.0,41.0,-100.00,WNW,295,6.0,9.0,89,-99.99,,,-99.99,,2013-04-24 06:52:00,
2013-04-24 02:02:00,44.0,41.0,-100.00,WNW,295,6.0,9.0,89,-99.99,,,-99.99,,2013-04-24 07:02:00,
2013-04-24 02:11:00,43.0,40.0,-100.00,NW,305,8.0,10.0,89,-99.99,,,-99.99,,2013-04-24 07:11:00,
2013-04-24 02:22:00,43.0,40.0,-100.00,NW,305,9.0,14.0,89,-99.99,,,-99.99,,2013-04-24 07:22:00,
2013-04-24 02:32:00,43.0,40.0,-100.00,NW,305,9.0,14.0,89,-99.99,,,-99.99,,2013-04-24 07:32:00,
2013-04-24 02:42:00,43.0,40.0,-100.00,NW,325,4.0,6.0,90,-99.99,,,-99.99,,2013-04-24 07:42:00,
2013-04-24 02:52:00,43.0,40.0,-100.00,WNW,295,6.0,6.0,91,-99.99,,,-99.99,,2013-04-24 07:52:00,
2013-04-24 03:02:00,43.0,40.0,-100.00,WNW,295,6.0,6.0,91,-99.99,,,-99.99,,2013-04-24 08:02:00,
2013-04-24 03:12:00,42.0,40.0,-100.00,WNW,295,9.0,10.0,91,-99.99,,,-99.99,,2013-04-24 08:12:00,
2013-04-24 03:21:00,42.0,40.0,-100.00,NW,305,6.0,10.0,91,-99.99,,,-99.99,,2013-04-24 08:21:00,
2013-04-24 03:33:00,42.0,40.0,-100.00,NW,305,6.0,10.0,91,-99.99,,,-99.99,,2013-04-24 08:33:00,
2013-04-24 03:42:00,42.0,39.0,-100.00,NNW,330,2.0,3.0,90,-99.99,,,-99.99,,2013-04-24 08:42:00,
2013-04-24 03:52:00,42.0,39.0,-100.00,NNW,340,3.0,4.0,90,-99.99,,,-99.99,,2013-04-24 08:52:00,
2013-04-24 04:02:00,42.0,39.0,-100.00,NNW,340,3.0,4.0,90,-99.99,,,-99.99,,2013-04-24 09:02:00,
2013-04-24 04:11:00,42.0,40.0,-100.00,WNW,300,9.0,12.0,91,-99.99,,,-99.99,,2013-04-24 09:11:00,
2013-04-24 04:21:00,42.0,39.0,-100.00,WNW,295,12.0,14.0,91,-99.99,,,-99.99,,2013-04-24 09:21:00,
2013-04-24 04:33:00,42.0,39.0,-100.00,WNW,295,12.0,14.0,91,-99.99,,,-99.99,,2013-04-24 09:33:00,
2013-04-24 04:42:00,42.0,39.0,-100.00,NW,310,6.0,9.0,91,-99.99,,,-99.99,,2013-04-24 09:42:00,
2013-04-24 04:53:00,42.0,39.0,-100.00,WNW,295,6.0,14.0,91,-99.99,,,-99.99,,2013-04-24 09:53:00,
2013-04-24 05:02:00,42.0,39.0,-100.00,WNW,295,6.0,14.0,91,-99.99,,,-99.99,,2013-04-24 10:02:00,
2013-04-24 05:12:00,41.0,39.0,-100.00,NW,310,9.0,12.0,91,-99.99,,,-99.99,,2013-04-24 10:12:00,
2013-04-24 05:22:00,41.0,39.0,-100.00,NW,320,6.0,14.0,91,-99.99,,,-99.99,,2013-04-24 10:22:00,
2013-04-24 05:32:00,41.0,39.0,-100.00,NW,320,6.0,14.0,91,-99.99,,,-99.99,,2013-04-24 10:32:00,
2013-04-24 05:42:00,41.0,39.0,-100.00,NW,320,6.0,14.0,91,-99.99,,,-99.99,,2013-04-24 10:42:00,
2013-04-24 05:53:00,41.0,39.0,-100.00,WNW,300,9.0,14.0,92,-99.99,,,-99.99,,2013-04-24 10:53:00,
2013-04-24 06:02:00,41.0,39.0,-100.00,WNW,300,9.0,14.0,92,-99.99,,,-99.99,,2013-04-24 11:02:00,
2013-04-24 06:11:00,41.0,39.0,-100.00,North,0,6.0,12.0,92,-99.99,,,-99.99,,2013-04-24 11:11:00,
2013-04-24 06:21:00,41.0,38.0,-100.00,NW,325,11.0,14.0,92,-99.99,,,-99.99,,2013-04-24 11:21:00,
2013-04-24 06:32:00,41.0,38.0,-100.00,NW,325,11.0,14.0,92,-99.99,,,-99.99,,2013-04-24 11:32:00,
2013-04-24 06:42:00,41.0,38.0,-100.00,NNW,335,4.0,6.0,91,-99.99,,,-99.99,,2013-04-24 11:42:00,
2013-04-24 06:52:00,40.0,38.0,-100.00,NNW,330,9.0,12.0,91,-99.99,,,-99.99,,2013-04-24 11:52:00,
2013-04-24 07:02:00,40.0,38.0,-100.00,NNW,330,9.0,12.0,91,-99.99,,,-99.99,,2013-04-24 12:02:00,
2013-04-24 07:11:00,40.0,38.0,-100.00,North,0,6.0,12.0,91,-99.99,,,-99.99,,2013-04-24 12:11:00,
2013-04-24 07:22:00,40.0,38.0,-100.00,WNW,300,9.0,11.0,91,-99.99,,,-99.99,,2013-04-24 12:22:00,
2013-04-24 07:32:00,40.0,38.0,-100.00,WNW,300,9.0,11.0,91,-99.99,,,-99.99,,2013-04-24 12:32:00,
2013-04-24 07:42:00,40.0,38.0,-100.00,NNE,20,6.0,9.0,91,-99.99,,,-99.99,,2013-04-24 12:42:00,
2013-04-24 07:52:00,40.0,38.0,-100.00,NW,305,4.0,6.0,91,-99.99,,,-99.99,,2013-04-24 12:52:00,
2013-04-24 08:01:00,40.0,38.0,-100.00,NW,305,4.0,6.0,91,-99.99,,,-99.99,,2013-04-24 13:01:00,
2013-04-24 08:12:00,40.0,38.0,-100.00,WNW,295,6.0,8.0,91,-99.99,,,-99.99,,2013-04-24 13:12:00,
2013-04-24 08:22:00,40.0,38.0,-100.00,WNW,300,10.0,14.0,90,-99.99,,,-99.99,,2013-04-24 13:22:00,
2013-04-24 08:32:00,40.0,38.0,-100.00,WNW,300,10.0,14.0,90,-99.99,,,-99.99,,2013-04-24 13:32:00,
2013-04-24 08:41:00,40.0,38.0,-100.00,WNW,300,10.0,14.0,90,-99.99,,,-99.99,,2013-04-24 13:41:00,
2013-04-24 09:11:00,41.0,38.0,-100.00,WNW,290,6.0,9.0,90,-99.99,,,-99.99,,2013-04-24 14:11:00,
2013-04-24 09:21:00,41.0,38.0,-100.00,WNW,300,6.0,12.0,90,-99.99,,,-99.99,,2013-04-24 14:21:00,
2013-04-24 09:32:00,41.0,38.0,-100.00,WNW,300,6.0,12.0,90,-99.99,,,-99.99,,2013-04-24 14:32:00,
2013-04-24 09:41:00,41.0,38.0,-100.00,WNW,295,11.0,16.0,91,-99.99,,,-99.99,,2013-04-24 14:41:00,
2013-04-24 09:52:00,41.0,38.0,-100.00,WNW,295,10.0,14.0,90,-99.99,,,-99.99,,2013-04-24 14:52:00,
2013-04-24 10:01:00,41.0,38.0,-100.00,WNW,295,10.0,14.0,90,-99.99,,,-99.99,,2013-04-24 15:01:00,
2013-04-24 10:11:00,41.0,38.0,-100.00,WNW,295,10.0,14.0,90,-99.99,,,-99.99,,2013-04-24 15:11:00,
2013-04-24 10:22:00,42.0,38.0,-100.00,NW,315,10.0,16.0,85,-99.99,,,-99.99,,2013-04-24 15:22:00,
2013-04-24 10:33:00,42.0,38.0,-100.00,NW,315,10.0,16.0,85,-99.99,,,-99.99,,2013-04-24 15:33:00,
2013-04-24 10:43:00,42.0,37.0,-100.00,WNW,300,10.0,14.0,85,-99.99,,,-99.99,,2013-04-24 15:43:00,
2013-04-24 10:53:00,43.0,38.0,-100.00,WNW,300,9.0,12.0,82,-99.99,,,-99.99,,2013-04-24 15:53:00,
2013-04-24 11:03:00,43.0,38.0,-100.00,WNW,300,9.0,12.0,82,-99.99,,,-99.99,,2013-04-24 16:03:00,
2013-04-24 11:12:00,43.0,37.0,-100.00,WNW,285,10.0,18.0,78,-99.99,,,-99.99,,2013-04-24 16:12:00,
2013-04-24 11:23:00,42.0,36.0,-100.00,WNW,285,10.0,16.0,78,-99.99,,,-99.99,,2013-04-24 16:23:00,
2013-04-24 11:32:00,42.0,36.0,-100.00,WNW,285,10.0,16.0,78,-99.99,,,-99.99,,2013-04-24 16:32:00,
2013-04-24 11:42:00,43.0,35.0,-100.00,WNW,300,9.0,14.0,73,-99.99,,,-99.99,,2013-04-24 16:42:00,
2013-04-24 11:53:00,42.0,34.0,-100.00,WNW,290,12.0,16.0,73,-99.99,,,-99.99,,2013-04-24 16:53:00,
2013-04-24 12:02:00,42.0,34.0,-100.00,WNW,290,12.0,16.0,73,-99.99,,,-99.99,,2013-04-24 17:02:00,
2013-04-24 12:12:00,42.0,34.0,-100.00,West,280,6.0,10.0,72,-99.99,,,-99.99,,2013-04-24 17:12:00,
2013-04-24 12:22:00,43.0,34.0,-100.00,NW,310,6.0,10.0,70,-99.99,,,-99.99,,2013-04-24 17:22:00,
2013-04-24 12:32:00,43.0,34.0,-100.00,NW,310,6.0,10.0,70,-99.99,,,-99.99,,2013-04-24 17:32:00,
2013-04-24 12:42:00,44.0,33.0,-100.00,NW,310,9.0,14.0,66,-99.99,,,-99.99,,2013-04-24 17:42:00,
2013-04-24 12:52:00,44.0,33.0,-100.00,NNW,340,9.0,14.0,64,-99.99,,,-99.99,,2013-04-24 17:52:00,
2013-04-24 13:02:00,44.0,33.0,-100.00,NNW,340,9.0,14.0,64,-99.99,,,-99.99,,2013-04-24 18:02:00,
2013-04-24 13:12:00,43.0,32.0,-100.00,WNW,295,16.0,18.0,65,-99.99,,,-99.99,,2013-04-24 18:12:00,
2013-04-24 13:22:00,44.0,33.0,-100.00,NW,315,8.0,12.0,65,-99.99,,,-99.99,,2013-04-24 18:22:00,
2013-04-24 13:33:00,44.0,33.0,-100.00,NW,315,8.0,12.0,65,-99.99,,,-99.99,,2013-04-24 18:33:00,
2013-04-24 13:42:00,45.0,32.0,-100.00,NW,310,8.0,9.0,62,-99.99,,,-99.99,,2013-04-24 18:42:00,
2013-04-24 13:52:00,46.0,33.0,-100.00,WNW,290,10.0,12.0,60,-99.99,,,-99.99,,2013-04-24 18:52:00,
2013-04-24 14:02:00,46.0,33.0,-100.00,WNW,290,10.0,12.0,60,-99.99,,,-99.99,,2013-04-24 19:02:00,
2013-04-24 14:11:00,44.0,31.0,-100.00,WNW,300,6.0,10.0,59,-99.99,,,-99.99,,2013-04-24 19:11:00,
2013-04-24 14:22:00,47.0,33.0,-100.00,WNW,285,9.0,12.0,59,-99.99,,,-99.99,,2013-04-24 19:22:00,
2013-04-24 14:32:00,47.0,33.0,-100.00,WNW,285,9.0,12.0,59,-99.99,,,-99.99,,2013-04-24 19:32:00,
2013-04-24 14:42:00,47.0,32.0,-100.00,North,0,8.0,11.0,55,-99.99,,,-99.99,,2013-04-24 19:42:00,
2013-04-24 14:52:00,46.0,30.0,-100.00,WNW,295,10.0,11.0,54,-99.99,,,-99.99,,2013-04-24 19:52:00,
2013-04-24 15:02:00,46.0,30.0,-100.00,WNW,295,10.0,11.0,54,-99.99,,,-99.99,,2013-04-24 20:02:00,
2013-04-24 15:11:00,47.0,29.0,-100.00,NW,305,6.0,11.0,49,-99.99,,,-99.99,,2013-04-24 20:11:00,
2013-04-24 15:22:00,47.0,29.0,-100.00,WNW,290,9.0,11.0,48,-99.99,,,-99.99,,2013-04-24 20:22:00,
2013-04-24 15:32:00,47.0,29.0,-100.00,WNW,290,9.0,11.0,48,-99.99,,,-99.99,,2013-04-24 20:32:00,
2013-04-24 15:42:00,47.0,29.0,-100.00,WNW,295,11.0,14.0,49,-99.99,,,-99.99,,2013-04-24 20:42:00,
2013-04-24 15:52:00,49.0,30.0,-100.00,West,270,4.0,6.0,47,-99.99,,,-99.99,,2013-04-24 20:52:00,
2013-04-24 16:02:00,49.0,30.0,-100.00,West,270,4.0,6.0,47,-99.99,,,-99.99,,2013-04-24 21:02:00,
2013-04-24 16:11:00,50.0,30.0,-100.00,West,280,2.0,4.0,45,-99.99,,,-99.99,,2013-04-24 21:11:00,
2013-04-24 16:21:00,49.0,28.0,-100.00,NW,315,9.0,14.0,43,-99.99,,,-99.99,,2013-04-24 21:21:00,
2013-04-24 16:33:00,49.0,28.0,-100.00,NW,315,9.0,14.0,43,-99.99,,,-99.99,,2013-04-24 21:33:00,
2013-04-24 16:42:00,50.0,28.0,-100.00,WNW,285,9.0,11.0,42,-99.99,,,-99.99,,2013-04-24 21:42:00,
2013-04-24 16:52:00,50.0,29.0,-100.00,NW,305,4.0,6.0,43,-99.99,,,-99.99,,2013-04-24 21:52:00,
2013-04-24 17:03:00,50.0,29.0,-100.00,NW,305,4.0,6.0,43,-99.99,,,-99.99,,2013-04-24 22:03:00,
2013-04-24 17:12:00,50.0,28.0,-100.00,NNW,340,1.0,4.0,42,-99.99,,,-99.99,,2013-04-24 22:12:00,
2013-04-24 17:22:00,51.0,28.0,-100.00,WNW,290,6.0,9.0,41,-99.99,,,-99.99,,2013-04-24 22:22:00,
2013-04-24 17:33:00,51.0,28.0,-100.00,WNW,290,6.0,9.0,41,-99.99,,,-99.99,,2013-04-24 22:33:00,
2013-04-24 17:42:00,51.0,27.0,-100.00,WNW,300,6.0,9.0,40,-99.99,,,-99.99,,2013-04-24 22:42:00,
2013-04-24 17:52:00,52.0,27.0,-100.00,NW,310,1.0,3.0,38,-99.99,,,-99.99,,2013-04-24 22:52:00,
2013-04-24 18:02:00,52.0,27.0,-100.00,NW,310,1.0,3.0,38,-99.99,,,-99.99,,2013-04-24 23:02:00,
2013-04-24 18:12:00,52.0,26.0,-100.00,NW,315,4.0,6.0,37,-99.99,,,-99.99,,2013-04-24 23:12:00,
2013-04-24 18:21:00,53.0,27.0,-100.00,NW,305,4.0,6.0,37,-99.99,,,-99.99,,2013-04-24 23:21:00,
2013-04-24 18:32:00,53.0,27.0,-100.00,NW,305,4.0,6.0,37,-99.99,,,-99.99,,2013-04-24 23:32:00,
2013-04-24 18:42:00,52.0,27.0,-100.00,NE,35,1.0,2.0,37,-99.99,,,-99.99,,2013-04-24 23:42:00,
2013-04-24 18:52:00,53.0,26.0,-100.00,NNW,330,1.0,3.0,35,-99.99,,,-99.99,,2013-04-24 23:52:00,
2013-04-24 19:02:00,53.0,26.0,-100.00,NNW,330,1.0,3.0,35,-99.99,,,-99.99,,2013-04-25 00:02:00,
2013-04-24 19:12:00,53.0,26.0,-100.00,North,350,1.0,2.0,35,-99.99,,,-99.99,,2013-04-25 00:12:00,
2013-04-24 19:22:00,51.0,26.0,-100.00,WNW,285,1.0,2.0,37,-99.99,,,-99.99,,2013-04-25 00:22:00,
2013-04-24 19:32:00,51.0,26.0,-100.00,WNW,285,1.0,2.0,37,-99.99,,,-99.99,,2013-04-25 00:32:00,
2013-04-24 19:42:00,50.0,26.0,-100.00,WNW,295,3.0,4.0,39,-99.99,,,-99.99,,2013-04-25 00:42:00,
2013-04-24 19:52:00,49.0,26.0,-100.00,West,270,1.0,2.0,40,-99.99,,,-99.99,,2013-04-25 00:52:00,
2013-04-24 20:01:00,49.0,26.0,-100.00,West,270,1.0,2.0,40,-99.99,,,-99.99,,2013-04-25 01:01:00,
2013-04-24 20:11:00,48.0,27.0,-100.00,West,280,0.0,0.0,44,-99.99,,,-99.99,,2013-04-25 01:11:00,
2013-04-24 20:23:00,46.0,28.0,-100.00,East,95,1.0,1.0,49,-99.99,,,-99.99,,2013-04-25 01:23:00,
2013-04-24 20:32:00,46.0,28.0,-100.00,East,95,1.0,1.0,49,-99.99,,,-99.99,,2013-04-25 01:32:00,
2013-04-24 20:42:00,45.0,29.0,-100.00,West,280,1.0,3.0,54,-99.99,,,-99.99,,2013-04-25 01:42:00,
2013-04-24 20:52:00,43.0,31.0,-100.00,SSW,205,0.0,0.0,63,-99.99,,,-99.99,,2013-04-25 01:52:00,
2013-04-24 21:02:00,43.0,31.0,-100.00,SSW,205,0.0,0.0,63,-99.99,,,-99.99,,2013-04-25 02:02:00,
2013-04-24 21:11:00,42.0,33.0,-100.00,SW,230,0.0,1.0,69,-99.99,,,-99.99,,2013-04-25 02:11:00,
2013-04-24 21:22:00,41.0,33.0,-100.00,South,185,1.0,1.0,74,-99.99,,,-99.99,,2013-04-25 02:22:00,
2013-04-24 21:32:00,41.0,33.0,-100.00,South,185,1.0,1.0,74,-99.99,,,-99.99,,2013-04-25 02:32:00,
2013-04-24 21:42:00,41.0,33.0,-100.00,South,185,1.0,1.0,74,-99.99,,,-99.99,,2013-04-25 02:42:00,
2013-04-24 22:02:00,39.0,34.0,-100.00,SW,215,0.0,0.0,82,-99.99,,,-99.99,,2013-04-25 03:02:00,
2013-04-24 22:11:00,38.0,34.0,-100.00,South,180,2.0,3.0,84,-99.99,,,-99.99,,2013-04-25 03:11:00,
2013-04-24 22:22:00,38.0,34.0,-100.00,SSW,200,1.0,1.0,86,-99.99,,,-99.99,,2013-04-25 03:22:00,
2013-04-24 22:33:00,38.0,34.0,-100.00,SSW,200,1.0,1.0,86,-99.99,,,-99.99,,2013-04-25 03:33:00,
2013-04-24 22:42:00,37.0,34.0,-100.00,SSW,210,1.0,1.0,87,-99.99,,,-99.99,,2013-04-25 03:42:00,
2013-04-24 22:52:00,37.0,33.0,-100.00,SSW,205,1.0,3.0,88,-99.99,,,-99.99,,2013-04-25 03:52:00,
2013-04-24 23:03:00,37.0,33.0,-100.00,SSW,205,1.0,3.0,88,-99.99,,,-99.99,,2013-04-25 04:03:00,
2013-04-24 23:12:00,36.0,33.0,-100.00,SSW,195,1.0,1.0,89,-99.99,,,-99.99,,2013-04-25 04:12:00,
2013-04-24 23:23:00,36.0,33.0,-100.00,South,175,1.0,2.0,89,-99.99,,,-99.99,,2013-04-25 04:23:00,
2013-04-24 23:31:00,35.0,33.0,-100.00,SSW,200,1.0,1.0,90,-99.99,,,-99.99,,2013-04-25 04:31:00,
2013-04-24 23:32:00,36.0,33.0,-100.00,South,175,1.0,2.0,89,-99.99,,,-99.99,,2013-04-25 04:32:00,
2013-04-24 23:43:00,36.0,33.0,-100.00,South,175,2.0,3.0,90,-99.99,,,-99.99,,2013-04-25 04:43:00,
2013-04-24 23:52:00,36.0,33.0,-100.00,South,180,1.0,1.0,90,-99.99,,,-99.99,,2013-04-25 04:52:00,